Погода в Пановой

Россия / Свердловская область     57°10′53″N   63°28′22″E
темп.,
°C
ветер,
м/с
пор.,
м/с
влажн.,
%
обл.,
%
осадки,
мм/ч
давл.,
гПа
погр.,
м
16 апреля, пт
пт1623:00+12з4137115 0.0 1017291
02:00+11зсз4118250 0.0 1017352
05:00+7с5987100 0.2 1020623
08:00+5ссв41069100 0.4 1023876
11:00+7ссв674986 0.4 10251162
14:00+9ссв56360 0.0 10261544
17:00+8ссв45361 0.0 10261625
20:00+5ссв22520 0.0 102729
17 апреля, сб
сб1723:00+3всв22595 0.0 102719
02:00+1юв11640 0.0 102710
05:00+1юз11670 0.0 102711
08:00+4зюз23560 0.0 1026209
11:00+8зюз34425 0.0 10251188
14:00+10з573877 0.0 10232060
17:00+10зсз583763 0.0 10212128
20:00+7з365774 0.0 1019112
18 апреля, вс
вс1823:00+5зсз41165100 0.0 1019344
02:00+3зсз512725 0.0 1017475
05:00+3зсз613766 0.0 1016678
08:00+1с6125797 0.4 10191054
11:00+2с812465 0.4 10221779
14:00+2ссв81038100 0.0 10252402
17:00+2ссв6932100 0.0 10282546
20:00−1ссв493910 0.0 1030406
19 апреля, пн
пн1923:00−3ссв48400 0.0 1033925
02:00−4ссв36460 0.0 1035956
05:00−5ссв35510 0.0 1037591
08:00−4ссв45445 0.0 10381197
11:00−1ссв45335 0.0 10381562
14:00+1ссв35285 0.0 10381942
17:00+2с352825 0.0 10372053
20:00−1сз11415 0.0 103710
20 апреля, вт
вт2023:00−2з22470 0.0 103721
02:00−3з25525 0.0 103792
05:00−3з24505 0.0 103675
08:000з364120 0.0 1035329
11:00+5зсз463111 0.0 10341425
14:00+7сз45325 0.0 10331611
17:00+8сз46345 0.0 10321818
20:00+5сз22515 0.0 103310